|
NORAD ID: 21152 Int'l Code: 1991-019A
Perigee: 960.8 km
Apogee: 1,023.3 km
Inclination: 82.9 °
Period: 104.8 minutes
Semi major axis: 7363 km
Launch date: March 12, 1991
Source: Commonwealth of Independent States (former USSR) (CIS)
Two Line Element Set (TLE):
1 21152U 91019A 13144.11444934 .00000084 00000-0 72840-4 0 576
2 21152 082.9283 242.3031 0042433 050.0826 025.5107 13.74103008112996
Source: AFSPC
NASA's NSSDC Master Catalog entry for NADEZHDA 3
|